[[{"header":{"parameterUnit":"m.s-1","parameterCategory":1,"la1":30.2991,"la2":30.254,"lo1":-89.0895,"lo2":-89.0444,"dy":0.0017,"dx":0.0017,"nx":28,"ny":28,"refTime":"2023-09-23T03:00:00:Z","depth":0,"parameterNumber":2,"parameterNumberName":"U-component_of_WINDS"},"data":[0,0,0,0,0,0,0,0,0,0,0,0,0,0,0,0,0,0,0,0,0,0,0,0,0,0,0,0,0,0,0,0,0,0,0,0,0,0,0,0,0,0,0,0,0,0,0,0,0,0,0,0,0,0,0,0,0,0,-1.7309,-1.7309,0,-1.7257,-1.7256,-1.7256,-1.7167,-1.7165,-1.7163,-1.7162,-1.7108,-1.7108,-1.7108,0,0,0,0,0,0,0,0,0,0,0,0,0,-1.7334,-1.7334,-1.7309,-1.7309,-1.7308,-1.7257,-1.7256,-1.7256,-1.7167,-1.7165,-1.7163,-1.7161,-1.7108,-1.7108,-1.7108,0,0,0,0,0,0,0,0,0,0,0,0,0,-1.7307,-1.7334,-1.731,-1.7258,-1.7253,-1.7257,-1.7256,-1.7256,-1.7167,-1.7165,-1.7162,-1.716,-1.7108,-1.7108,-1.7108,-1.7159,0,0,-1.7109,-1.7109,0,0,0,0,0,0,0,0,-1.7308,-1.7306,-1.7266,-1.7261,-1.7256,-1.7216,-1.7245,-1.7223,-1.7168,-1.72,-1.7162,-1.7159,-1.7146,-1.7143,-1.7138,-1.7156,-1.7154,-1.7109,-1.7109,-1.7109,-1.7109,0,0,0,0,0,0,0,-1.731,-1.7308,-1.7289,-1.7266,-1.7259,-1.7238,-1.7231,-1.7241,-1.7187,-1.7197,-1.719,-1.7185,-1.7142,-1.7138,-1.7136,-1.7153,-1.7109,-1.7109,-1.7109,-1.7109,-1.7213,-1.7215,0,0,0,0,0,0,-1.732,-1.731,-1.729,-1.7287,-1.7276,-1.7239,-1.7232,-1.7231,-1.7187,-1.7178,-1.7187,-1.7181,-1.7139,-1.7136,-1.7134,-1.7191,-1.7109,-1.7109,-1.7109,-1.721,-1.7213,-1.7216,0,0,0,0,0,0,-1.7321,-1.7319,-1.7292,-1.7297,-1.7292,-1.7241,-1.7241,-1.7231,-1.7227,-1.718,-1.717,-1.7193,-1.7137,-1.7134,-1.7154,-1.7188,-1.7109,-1.7109,-1.7207,-1.7211,-1.7215,-1.7307,0,0,0,0,0,0,-1.7322,-1.732,-1.7338,-1.7298,-1.7292,-1.7313,-1.7244,-1.7232,-1.7228,-1.7219,-1.7182,-1.7174,-1.7135,-1.7154,-1.7154,-1.7187,-1.7109,-1.7204,-1.7209,-1.7214,-1.73,-1.7313,-1.7324,0,0,0,0,0,-1.7323,-1.7365,-1.7339,-1.7337,-1.7313,-1.7315,-1.7311,-1.7266,-1.7231,-1.7249,-1.7219,-1.7175,-1.7185,-1.7157,-1.7156,-1.719,-1.7201,-1.7207,-1.7213,-1.7295,-1.7311,-1.7324,0,0,0,0,0,0,-1.741,-1.7359,-1.7329,-1.736,-1.7343,-1.73,-1.7321,-1.7284,-1.7276,-1.7268,-1.7212,-1.7204,-1.7232,-1.7213,-1.7182,-1.7238,-1.7186,-1.7193,-1.7249,-1.7263,-1.7275,-1.7279,-1.7109,0,0,0,0,0,-1.7433,-1.7438,-1.7393,-1.7425,-1.7418,-1.7372,-1.737,-1.7337,-1.7317,-1.7309,-1.728,-1.7262,-1.7261,-1.7261,-1.7258,-1.7298,-1.7289,-1.7321,-1.7333,-1.7343,-1.7349,-1.737,-1.7384,-1.7236,-1.7236,-1.7236,0,0,-1.748,-1.7453,-1.7459,-1.7442,-1.7424,-1.7431,-1.7366,-1.7375,-1.738,-1.731,-1.7327,-1.7306,-1.7282,-1.7313,-1.7325,-1.7298,-1.7388,-1.7351,-1.7359,-1.7359,-1.7377,-1.7392,-1.7404,-1.724,-1.7239,-1.7239,0,0,-1.7569,-1.7549,-1.7573,-1.7558,-1.7533,-1.7502,-1.7509,-1.7472,-1.7455,-1.7472,-1.742,-1.7426,-1.7425,-1.7411,-1.7403,-1.7491,-1.7451,-1.7492,-1.7554,-1.7576,-1.7587,-1.7597,-1.7629,-1.7641,-1.7498,-1.7498,-1.7498,0,-1.763,-1.7638,-1.759,-1.7604,-1.7599,-1.7537,-1.7562,-1.7549,-1.7524,-1.7522,-1.7493,-1.7492,-1.7472,-1.7499,-1.7521,-1.7517,-1.7523,-1.7495,-1.759,-1.7599,-1.7608,-1.7637,-1.7649,-1.7503,-1.7503,-1.7502,-1.7502,0,-1.7715,-1.7722,-1.7745,-1.7724,-1.7721,-1.774,-1.7696,-1.77,-1.7668,-1.7641,-1.766,-1.7634,-1.7625,-1.7629,-1.7598,-1.7653,-1.7637,-1.76,-1.7546,-1.7628,-1.7655,-1.7666,-1.7511,-1.7509,-1.7507,-1.7506,0,0,-1.7854,-1.7808,-1.7818,-1.7808,-1.7777,-1.7782,-1.78,-1.7792,-1.7796,-1.7782,-1.7796,-1.7799,-1.7764,-1.7756,-1.7723,-1.7742,-1.7815,-1.7702,-1.7701,-1.7724,-1.7875,-1.7903,-1.7916,-1.7789,-1.779,-1.7792,-1.7877,0,-1.7936,-1.7963,-1.7922,-1.7959,-1.7965,-1.7909,-1.7924,-1.7908,-1.7884,-1.7887,-1.7861,-1.7864,-1.7818,-1.7813,-1.783,-1.7802,-1.7844,-1.7796,-1.7801,-1.7802,-1.7807,-1.793,-1.7959,-1.804,-1.7887,-1.7889,-1.789,0,-1.8034,-1.8026,-1.8064,-1.8033,-1.8035,-1.8049,-1.804,-1.8043,-1.8024,-1.8006,-1.7999,-1.796,-1.7977,-1.7927,-1.7949,-1.7918,-1.7918,-1.7905,-1.7907,-1.7905,-1.785,-1.7931,-1.8065,-1.8077,-1.7906,-1.7905,-1.7904,0,-1.8132,-1.8131,-1.8154,-1.8147,-1.8112,-1.8124,-1.811,-1.8089,-1.8087,-1.8079,-1.8078,-1.8073,-1.8069,-1.8066,-1.8028,-1.7995,-1.8055,-1.8002,-1.8041,-1.8042,-1.8054,-1.8054,-1.8189,-1.8056,-1.8056,-1.8056,-1.8056,0,-1.8227,-1.8252,-1.8197,-1.8211,-1.8239,-1.8192,-1.8221,-1.8201,-1.8183,-1.8193,-1.8144,-1.8154,-1.8103,-1.8109,-1.8079,-1.8103,-1.8101,-1.8087,-1.8079,-1.8091,-1.8093,-1.8089,-1.8082,-1.8059,-1.8058,-1.8058,-1.8057,0,-1.834,-1.8304,-1.8325,-1.8291,-1.8283,-1.8305,-1.8276,-1.8288,-1.8263,-1.8276,-1.8276,-1.8236,-1.824,-1.8202,-1.8199,-1.8179,-1.8216,-1.8198,-1.8222,-1.8216,-1.8257,-1.8254,-1.8395,-1.8411,-1.8268,-1.827,-1.8271,0,-1.8402,-1.8421,-1.8389,-1.8393,-1.8381,-1.8387,-1.8386,-1.8342,-1.8343,-1.8325,-1.834,-1.834,-1.8337,-1.8347,-1.8317,-1.8315,-1.8297,-1.8346,-1.8296,-1.8308,-1.8297,-1.8296,-1.8298,-1.8356,-1.8358,-1.8359,-1.8361,0,-1.8517,-1.8499,-1.8499,-1.8494,-1.8495,-1.8488,-1.8479,-1.8485,-1.8437,-1.8441,-1.8445,-1.8444,-1.8441,-1.8442,-1.8435,-1.8421,-1.8384,-1.8377,-1.8386,-1.8398,-1.8411,-1.8405,-1.8251,-1.8374,-1.8372,-1.8371,-1.8371,-1.837,-1.8606,-1.862,-1.8601,-1.8604,-1.8593,-1.8586,-1.8596,-1.8573,-1.8575,-1.857,-1.8544,-1.8553,-1.8536,-1.8523,-1.8513,-1.852,-1.8496,-1.8508,-1.8511,-1.8515,-1.8522,-1.8412,-1.8518,-1.8518,-1.8517,-1.8517,-1.8517,0,-1.8718,-1.8704,-1.8707,-1.8696,-1.8699,-1.8664,-1.8653,-1.8657,-1.8666,-1.8654,-1.8653,-1.8659,-1.866,-1.8633,-1.8631,-1.8642,-1.8625,-1.8643,-1.8641,-1.8639,-1.8544,-1.8536,-1.8657,-1.8657,-1.8657,-1.8657,-1.8657,-1.8657,-1.8776,-1.8799,-1.878,-1.8797,-1.8783,-1.8791,-1.8788,-1.8782,-1.8772,-1.878,-1.8782,-1.8764,-1.8746,-1.8744,-1.8744,-1.8736,-1.8738,-1.8762,-1.8748,-1.8659,-1.8646,-1.8633,-1.8625,-1.8763,-1.8763,-1.8842,-1.8843,-1.8844]},{"header":{"parameterUnit":"m.s-1","parameterCategory":1,"la1":30.2991,"la2":30.254,"lo1":-89.0895,"lo2":-89.0444,"dy":0.0017,"dx":0.0017,"nx":28,"ny":28,"refTime":"2023-09-23T03:00:00:Z","depth":0,"parameterNumber":3,"parameterNumberName":"V-component_of_WINDS"},"data":[0,0,0,0,0,0,0,0,0,0,0,0,0,0,0,0,0,0,0,0,0,0,0,0,0,0,0,0,0,0,0,0,0,0,0,0,0,0,0,0,0,0,0,0,0,0,0,0,0,0,0,0,0,0,0,0,0,0,2.3248,2.3249,0,2.3282,2.3282,2.3283,2.3297,2.3297,2.3296,2.3296,2.3329,2.333,2.3331,0,0,0,0,0,0,0,0,0,0,0,0,0,2.3193,2.3194,2.3248,2.3249,2.3249,2.3282,2.3282,2.3283,2.3297,2.3297,2.3296,2.3296,2.3329,2.333,2.3331,0,0,0,0,0,0,0,0,0,0,0,0,0,2.3221,2.3195,2.3248,2.326,2.3261,2.3282,2.3282,2.3283,2.3297,2.3297,2.3296,2.3296,2.3328,2.333,2.3331,2.3342,0,0,2.3335,2.3336,0,0,0,0,0,0,0,0,2.322,2.3223,2.3258,2.3259,2.3261,2.3285,2.3275,2.3303,2.3297,2.3283,2.3296,2.3296,2.3314,2.3317,2.3323,2.3343,2.3345,2.3335,2.3336,2.3337,2.3337,0,0,0,0,0,0,0,2.3218,2.3222,2.3262,2.3258,2.326,2.3263,2.3267,2.328,2.3299,2.3284,2.3285,2.3289,2.3315,2.3322,2.3324,2.3345,2.3335,2.3337,2.3337,2.3338,2.3375,2.3375,0,0,0,0,0,0,2.3214,2.322,2.326,2.3263,2.324,2.3264,2.3268,2.3277,2.3299,2.3302,2.3289,2.329,2.332,2.3323,2.3325,2.3339,2.3337,2.3338,2.3339,2.3375,2.3375,2.3375,0,0,0,0,0,0,2.3213,2.3218,2.3259,2.3242,2.3247,2.3265,2.3275,2.3278,2.3285,2.3303,2.3306,2.3293,2.332,2.3323,2.3338,2.334,2.3339,2.334,2.3374,2.3375,2.3375,2.3367,0,0,0,0,0,0,2.3211,2.3217,2.3222,2.3242,2.3248,2.3271,2.3275,2.3279,2.3288,2.3289,2.3307,2.331,2.332,2.3335,2.3339,2.3342,2.3341,2.3374,2.3375,2.3375,2.3367,2.3367,2.3367,0,0,0,0,0,2.3209,2.3218,2.3222,2.3227,2.3255,2.3272,2.3275,2.3287,2.3288,2.3292,2.3304,2.3309,2.3339,2.3337,2.3341,2.3345,2.3374,2.3374,2.3375,2.3367,2.3367,2.3367,0,0,0,0,0,0,2.3198,2.3221,2.3226,2.3241,2.3254,2.3274,2.328,2.3286,2.3299,2.33,2.3313,2.3317,2.333,2.3339,2.3335,2.3356,2.3357,2.3358,2.335,2.335,2.335,2.3347,2.3342,0,0,0,0,0,2.3197,2.3209,2.3229,2.324,2.3247,2.3262,2.327,2.3278,2.3292,2.3298,2.331,2.3323,2.3335,2.3343,2.3355,2.3368,2.3372,2.3373,2.3372,2.3372,2.3373,2.338,2.3381,2.3376,2.3376,2.3376,0,0,2.3195,2.321,2.3217,2.3238,2.325,2.3262,2.3267,2.328,2.3288,2.3299,2.3314,2.3323,2.3338,2.3351,2.3358,2.3359,2.3375,2.3373,2.3372,2.3373,2.3381,2.3381,2.3381,2.3376,2.3376,2.3376,0,0,2.3199,2.3211,2.3222,2.3233,2.325,2.326,2.3263,2.3282,2.3288,2.3303,2.3311,2.3322,2.3343,2.3353,2.3361,2.3368,2.3373,2.3371,2.337,2.3377,2.3378,2.3378,2.338,2.3381,2.3372,2.3372,2.3372,0,2.3195,2.3214,2.3227,2.3239,2.3248,2.3259,2.327,2.328,2.33,2.3305,2.3306,2.3333,2.3344,2.336,2.3361,2.3367,2.337,2.3369,2.3377,2.3377,2.3378,2.338,2.3381,2.3372,2.3372,2.3372,2.3372,0,2.3208,2.3221,2.3228,2.3247,2.3257,2.3269,2.3282,2.3291,2.3297,2.3307,2.3321,2.3335,2.335,2.3354,2.3361,2.3371,2.3371,2.3374,2.3376,2.3378,2.338,2.3381,2.3371,2.3371,2.3371,2.3371,0,0,2.3206,2.3232,2.3234,2.3243,2.3262,2.3272,2.3284,2.3299,2.3306,2.3319,2.3328,2.3346,2.3349,2.3358,2.3365,2.3371,2.3376,2.3374,2.3374,2.3374,2.3387,2.3385,2.3386,2.3379,2.3379,2.338,2.3386,0,2.3212,2.3234,2.3246,2.3262,2.3274,2.3284,2.3294,2.3307,2.3316,2.3327,2.3336,2.3348,2.3351,2.3357,2.3363,2.3374,2.3379,2.3373,2.3388,2.3388,2.3384,2.3387,2.3385,2.3391,2.3387,2.3387,2.3387,0,2.3223,2.3236,2.3254,2.3272,2.3277,2.3286,2.3301,2.3311,2.3325,2.3331,2.3341,2.3349,2.336,2.3361,2.3377,2.3373,2.3379,2.3385,2.3386,2.3388,2.3388,2.339,2.3393,2.3394,2.3389,2.3389,2.3389,0,2.322,2.3242,2.3256,2.3263,2.3283,2.3289,2.3298,2.3312,2.332,2.3333,2.3338,2.3352,2.3359,2.3369,2.3379,2.3379,2.3394,2.3396,2.3399,2.3399,2.3403,2.3402,2.3407,2.3406,2.3406,2.3406,2.3406,0,2.3226,2.3236,2.3254,2.3263,2.3275,2.3287,2.3298,2.3308,2.332,2.333,2.3339,2.3348,2.3361,2.3372,2.338,2.3392,2.3395,2.34,2.3402,2.3399,2.3399,2.3404,2.3404,2.3407,2.3406,2.3406,2.3406,0,2.3224,2.3237,2.3253,2.3271,2.3275,2.3283,2.3299,2.3307,2.3316,2.3328,2.3332,2.3347,2.3359,2.3371,2.3387,2.3393,2.3405,2.3408,2.3401,2.3402,2.3405,2.3405,2.3414,2.3415,2.3413,2.3413,2.3413,0,2.3228,2.3236,2.3255,2.3263,2.3271,2.3283,2.3292,2.3304,2.3313,2.3329,2.3335,2.3348,2.336,2.3379,2.3391,2.3403,2.3407,2.3409,2.3408,2.3405,2.3407,2.3406,2.3407,2.3409,2.3409,2.3409,2.3409,0,2.3232,2.3238,2.325,2.3265,2.3275,2.3286,2.3298,2.3304,2.3318,2.3327,2.334,2.3349,2.3366,2.3379,2.3393,2.3401,2.3407,2.3408,2.341,2.3408,2.3403,2.3406,2.34,2.3408,2.3408,2.3408,2.3408,2.3408,2.3234,2.3241,2.3256,2.3269,2.3279,2.329,2.3299,2.3309,2.3321,2.3336,2.3342,2.3356,2.3368,2.3388,2.3396,2.3406,2.3407,2.341,2.341,2.3411,2.341,2.3401,2.3409,2.3409,2.3409,2.3409,2.3409,0,2.3239,2.3248,2.326,2.3277,2.3287,2.3292,2.3305,2.3313,2.3325,2.3337,2.3348,2.3363,2.3376,2.3388,2.3401,2.3407,2.341,2.341,2.341,2.3412,2.3408,2.3406,2.3407,2.3407,2.3407,2.3407,2.3407,2.3407,2.3243,2.3256,2.3263,2.3282,2.3291,2.3305,2.3312,2.3322,2.3331,2.3348,2.3358,2.3367,2.3378,2.3392,2.3404,2.3407,2.3412,2.3411,2.3415,2.3412,2.3412,2.3412,2.341,2.3412,2.3412,2.3417,2.3417,2.3417]}]]